Time,TemperatureF,DewpointF,PressureIn,WindDirection,WindDirectionDegrees,WindSpeedMPH,WindSpeedGustMPH,Humidity,HourlyPrecipIn,Conditions,Clouds,dailyrainin,SoftwareType,DateUTC
2013-06-17 00:00:00,65.6,53.1,30.04,West,280,2.0,6.0,64,0.00,,,0.00,Weather View 32 v70,2013-06-17 07:00:00,
2013-06-17 00:10:00,65.6,53.1,30.04,West,280,3.0,7.0,64,0.00,,,0.00,Weather View 32 v70,2013-06-17 07:10:00,
2013-06-17 00:15:00,65.5,53.0,30.04,West,280,1.0,7.0,64,0.00,,,0.00,Weather View 32 v70,2013-06-17 07:15:00,
2013-06-17 00:20:00,65.3,53.2,30.04,West,280,0.0,7.0,65,0.00,,,0.00,Weather View 32 v70,2013-06-17 07:20:00,
2013-06-17 00:30:00,64.7,53.5,30.04,West,280,0.0,7.0,67,0.00,,,0.00,Weather View 32 v70,2013-06-17 07:30:00,
2013-06-17 00:35:00,64.2,53.4,30.04,West,280,0.0,7.0,68,0.00,,,0.00,Weather View 32 v70,2013-06-17 07:35:00,
2013-06-17 00:45:00,63.5,53.1,30.04,West,280,0.0,7.0,69,0.00,,,0.00,Weather View 32 v70,2013-06-17 07:45:00,
2013-06-17 00:50:00,63.2,53.2,30.05,West,280,0.0,7.0,70,0.00,,,0.00,Weather View 32 v70,2013-06-17 07:50:00,
2013-06-17 00:55:00,63.4,53.0,30.04,WNW,289,1.0,7.0,69,0.00,,,0.00,Weather View 32 v70,2013-06-17 07:55:00,
2013-06-17 01:05:00,64.2,53.0,30.04,NW,306,1.0,7.0,67,0.00,,,0.00,Weather View 32 v70,2013-06-17 08:05:00,
2013-06-17 01:10:00,64.2,53.0,30.04,NW,306,2.0,7.0,67,0.00,,,0.00,Weather View 32 v70,2013-06-17 08:10:00,
2013-06-17 01:15:00,64.3,52.7,30.04,NW,306,0.0,7.0,66,0.00,,,0.00,Weather View 32 v70,2013-06-17 08:15:00,
2013-06-17 01:20:00,64.7,53.0,30.04,NW,306,1.0,7.0,66,0.00,,,0.00,Weather View 32 v70,2013-06-17 08:20:00,
2013-06-17 01:30:00,64.5,52.9,30.04,NW,306,1.0,7.0,66,0.00,,,0.00,Weather View 32 v70,2013-06-17 08:30:00,
2013-06-17 01:40:00,64.8,53.1,30.04,WNW,285,1.0,7.0,66,0.00,,,0.00,Weather View 32 v70,2013-06-17 08:40:00,
2013-06-17 01:45:00,64.8,53.1,30.04,West,274,1.0,9.0,66,0.00,,,0.00,Weather View 32 v70,2013-06-17 08:45:00,
2013-06-17 01:55:00,64.8,53.1,30.04,WNW,291,4.0,9.0,66,0.00,,,0.00,Weather View 32 v70,2013-06-17 08:55:00,
2013-06-17 02:00:00,64.7,53.5,30.04,West,281,4.0,9.0,67,0.00,,,0.00,Weather View 32 v70,2013-06-17 09:00:00,
2013-06-17 02:05:00,64.5,53.3,30.04,West,261,2.0,9.0,67,0.00,,,0.00,Weather View 32 v70,2013-06-17 09:05:00,
2013-06-17 02:15:00,64.2,53.4,30.04,WNW,291,1.0,9.0,68,0.00,,,0.00,Weather View 32 v70,2013-06-17 09:15:00,
2013-06-17 02:20:00,64.0,53.6,30.04,WNW,286,1.0,9.0,69,0.00,,,0.00,Weather View 32 v70,2013-06-17 09:20:00,
2013-06-17 02:30:00,63.9,53.5,30.04,West,275,5.0,9.0,69,0.00,,,0.00,Weather View 32 v70,2013-06-17 09:30:00,
2013-06-17 02:35:00,63.7,53.3,30.04,WNW,288,3.0,12.0,69,0.00,,,0.00,Weather View 32 v70,2013-06-17 09:35:00,
2013-06-17 02:45:00,63.5,53.5,30.04,WNW,282,4.0,12.0,70,0.00,,,0.00,Weather View 32 v70,2013-06-17 09:45:00,
2013-06-17 02:54:00,63.4,53.4,30.04,WNW,291,5.0,12.0,70,0.00,,,0.00,Weather View 32 v70,2013-06-17 09:54:00,
2013-06-17 03:00:00,63.2,53.2,30.04,WNW,284,4.0,12.0,70,0.00,,,0.00,Weather View 32 v70,2013-06-17 10:00:00,
2013-06-17 03:05:00,63.2,53.2,30.03,WNW,292,4.0,12.0,70,0.00,,,0.00,Weather View 32 v70,2013-06-17 10:05:00,
2013-06-17 03:15:00,63.1,53.5,30.04,West,275,3.0,12.0,71,0.00,,,0.00,Weather View 32 v70,2013-06-17 10:15:00,
2013-06-17 03:21:00,62.9,52.9,30.04,WNW,292,4.0,12.0,70,0.00,,,0.00,Weather View 32 v70,2013-06-17 10:21:00,
2013-06-17 03:30:00,62.7,52.7,30.03,SW,228,8.0,12.0,70,0.00,,,0.00,Weather View 32 v70,2013-06-17 10:30:00,
2013-06-17 03:40:00,62.4,52.8,30.03,West,261,8.0,13.0,71,0.00,,,0.00,Weather View 32 v70,2013-06-17 10:40:00,
2013-06-17 03:45:00,62.3,52.8,30.02,WNW,283,4.0,13.0,71,0.00,,,0.00,Weather View 32 v70,2013-06-17 10:45:00,
2013-06-17 03:55:00,62.1,52.6,30.03,WSW,257,7.0,16.0,71,0.00,,,0.00,Weather View 32 v70,2013-06-17 10:55:00,
2013-06-17 04:00:00,62.0,52.5,30.03,WNW,286,5.0,16.0,71,0.00,,,0.00,Weather View 32 v70,2013-06-17 11:00:00,
2013-06-17 04:10:00,61.8,52.3,30.03,West,267,7.0,16.0,71,0.00,,,0.00,Weather View 32 v70,2013-06-17 11:10:00,
2013-06-17 04:15:00,61.8,52.7,30.03,West,271,8.0,16.0,72,0.00,,,0.00,Weather View 32 v70,2013-06-17 11:15:00,
2013-06-17 04:22:00,61.6,52.5,30.03,NW,313,4.0,16.0,72,0.00,,,0.00,Weather View 32 v70,2013-06-17 11:22:00,
2013-06-17 04:30:00,61.5,52.4,30.03,West,281,8.0,16.0,72,0.00,,,0.00,Weather View 32 v70,2013-06-17 11:30:00,
2013-06-17 04:40:00,61.5,52.0,30.03,West,268,6.0,16.0,71,0.00,,,0.00,Weather View 32 v70,2013-06-17 11:40:00,
2013-06-17 04:45:00,61.5,52.0,30.03,WNW,287,5.0,16.0,71,0.00,,,0.00,Weather View 32 v70,2013-06-17 11:45:00,
2013-06-17 04:55:00,61.3,51.8,30.03,West,267,4.0,13.0,71,0.00,,,0.00,Weather View 32 v70,2013-06-17 11:55:00,
2013-06-17 05:05:00,61.3,51.4,30.03,West,260,4.0,13.0,70,0.00,,,0.00,Weather View 32 v70,2013-06-17 12:05:00,
2013-06-17 05:15:00,61.3,51.4,30.03,West,260,6.0,13.0,70,0.00,,,0.00,Weather View 32 v70,2013-06-17 12:15:00,
2013-06-17 05:20:00,61.3,51.4,30.03,West,273,1.0,13.0,70,0.00,,,0.00,Weather View 32 v70,2013-06-17 12:20:00,
2013-06-17 05:25:00,61.2,51.3,30.03,WNW,284,6.0,14.0,70,0.00,,,0.00,Weather View 32 v70,2013-06-17 12:25:00,
2013-06-17 05:35:00,61.0,51.1,30.03,West,267,9.0,15.0,70,0.00,,,0.00,Weather View 32 v70,2013-06-17 12:35:00,
2013-06-17 05:45:00,60.7,51.2,30.03,WSW,253,10.0,15.0,71,0.00,,,0.00,Weather View 32 v70,2013-06-17 12:45:00,
2013-06-17 05:55:00,60.5,51.0,30.03,WNW,291,1.0,15.0,71,0.00,,,0.00,Weather View 32 v70,2013-06-17 12:55:00,
2013-06-17 06:00:00,60.5,51.0,30.03,West,269,4.0,15.0,71,0.00,,,0.00,Weather View 32 v70,2013-06-17 13:00:00,
2013-06-17 06:10:00,60.4,51.3,30.03,NW,313,1.0,15.0,72,0.00,,,0.00,Weather View 32 v70,2013-06-17 13:10:00,
2013-06-17 06:20:00,60.2,51.1,30.03,NW,313,3.0,15.0,72,0.00,,,0.00,Weather View 32 v70,2013-06-17 13:20:00,
2013-06-17 06:25:00,60.2,50.7,30.03,NW,309,2.0,15.0,71,0.00,,,0.00,Weather View 32 v70,2013-06-17 13:25:00,
2013-06-17 06:30:00,60.4,50.9,30.03,WNW,292,0.0,15.0,71,0.00,,,0.00,Weather View 32 v70,2013-06-17 13:30:00,
2013-06-17 06:35:00,60.5,51.0,30.03,WSW,245,1.0,15.0,71,0.00,,,0.00,Weather View 32 v70,2013-06-17 13:35:00,
2013-06-17 06:40:00,60.7,51.2,30.04,West,281,0.0,15.0,71,0.00,,,0.00,Weather View 32 v70,2013-06-17 13:40:00,
2013-06-17 06:50:00,61.0,51.1,30.04,West,281,0.0,15.0,70,0.00,,,0.00,Weather View 32 v70,2013-06-17 13:50:00,
2013-06-17 06:55:00,61.2,50.9,30.04,West,281,4.0,15.0,69,0.00,,,0.00,Weather View 32 v70,2013-06-17 13:55:00,
2013-06-17 07:05:00,61.5,51.2,30.04,West,279,0.0,12.0,69,0.00,,,0.00,Weather View 32 v70,2013-06-17 14:05:00,
2013-06-17 07:15:00,61.5,51.2,30.04,WSW,257,5.0,9.0,69,0.00,,,0.00,Weather View 32 v70,2013-06-17 14:15:00,
2013-06-17 07:20:00,61.6,51.3,30.03,West,276,1.0,9.0,69,0.00,,,0.00,Weather View 32 v70,2013-06-17 14:20:00,
2013-06-17 07:25:00,61.8,51.5,30.04,WNW,292,2.0,9.0,69,0.00,,,0.00,Weather View 32 v70,2013-06-17 14:25:00,
2013-06-17 07:30:00,61.8,51.5,30.04,West,280,2.0,9.0,69,0.00,,,0.00,Weather View 32 v70,2013-06-17 14:30:00,
2013-06-17 07:35:00,62.0,51.3,30.04,WNW,292,1.0,8.0,68,0.00,,,0.00,Weather View 32 v70,2013-06-17 14:35:00,
2013-06-17 07:45:00,62.4,51.7,30.04,West,268,8.0,10.0,68,0.00,,,0.00,Weather View 32 v70,2013-06-17 14:45:00,
2013-06-17 07:55:00,62.7,51.6,30.04,WNW,299,2.0,11.0,67,0.00,,,0.00,Weather View 32 v70,2013-06-17 14:55:00,
2013-06-17 08:05:00,63.4,51.4,30.04,WNW,289,3.0,12.0,65,0.00,,,0.00,Weather View 32 v70,2013-06-17 15:05:00,
2013-06-17 08:10:00,63.9,51.9,30.04,WNW,300,2.0,12.0,65,0.00,,,0.00,Weather View 32 v70,2013-06-17 15:10:00,
2013-06-17 08:15:00,64.0,52.0,30.04,West,263,8.0,12.0,65,0.00,,,0.00,Weather View 32 v70,2013-06-17 15:15:00,
2013-06-17 08:20:00,64.2,51.7,30.04,WNW,300,3.0,12.0,64,0.00,,,0.00,Weather View 32 v70,2013-06-17 15:20:00,
2013-06-17 08:29:00,64.2,51.3,30.04,WNW,288,3.0,12.0,63,0.00,,,0.00,Weather View 32 v70,2013-06-17 15:29:00,
2013-06-17 08:35:00,63.9,51.5,30.04,West,277,7.0,12.0,64,0.00,,,0.00,Weather View 32 v70,2013-06-17 15:35:00,
2013-06-17 08:45:00,64.3,51.4,30.04,NW,310,3.0,12.0,63,0.00,,,0.00,Weather View 32 v70,2013-06-17 15:45:00,
2013-06-17 08:50:00,64.2,51.7,30.04,NW,311,8.0,12.0,64,0.00,,,0.00,Weather View 32 v70,2013-06-17 15:50:00,
2013-06-17 09:00:00,64.5,52.4,30.03,NW,314,5.0,12.0,65,0.00,,,0.00,Weather View 32 v70,2013-06-17 16:00:00,
2013-06-17 09:05:00,64.0,52.4,30.03,NW,306,10.0,11.0,66,0.00,,,0.00,Weather View 32 v70,2013-06-17 16:05:00,
2013-06-17 09:10:00,63.9,52.3,30.03,NW,306,4.0,11.0,66,0.00,,,0.00,Weather View 32 v70,2013-06-17 16:10:00,
2013-06-17 09:15:00,64.2,52.6,30.03,NW,312,4.0,11.0,66,0.00,,,0.00,Weather View 32 v70,2013-06-17 16:15:00,
2013-06-17 09:25:00,64.8,52.7,30.02,WNW,296,5.0,12.0,65,0.00,,,0.00,Weather View 32 v70,2013-06-17 16:25:00,
2013-06-17 09:35:00,65.0,52.5,30.02,WNW,295,3.0,12.0,64,0.00,,,0.00,Weather View 32 v70,2013-06-17 16:35:00,
2013-06-17 09:45:00,64.5,52.0,30.02,West,267,4.0,14.0,64,0.00,,,0.00,Weather View 32 v70,2013-06-17 16:45:00,
2013-06-17 09:55:00,65.6,52.2,30.01,WNW,292,5.0,14.0,62,0.00,,,0.00,Weather View 32 v70,2013-06-17 16:55:00,
2013-06-17 10:00:00,66.1,52.2,30.01,West,267,9.0,14.0,61,0.00,,,0.00,Weather View 32 v70,2013-06-17 17:00:00,
2013-06-17 10:05:00,66.4,52.9,30.00,WNW,285,3.0,14.0,62,0.00,,,0.00,Weather View 32 v70,2013-06-17 17:05:00,
2013-06-17 10:10:00,67.1,51.8,30.00,WNW,288,5.0,14.0,58,0.00,,,0.00,Weather View 32 v70,2013-06-17 17:10:00,
2013-06-17 10:20:00,67.9,52.1,30.00,West,267,8.0,14.0,57,0.00,,,0.00,Weather View 32 v70,2013-06-17 17:20:00,
2013-06-17 10:25:00,68.4,51.6,29.99,WNW,298,5.0,14.0,55,0.00,,,0.00,Weather View 32 v70,2013-06-17 17:25:00,
2013-06-17 10:30:00,68.8,51.9,29.99,WNW,289,11.0,14.0,55,0.00,,,0.00,Weather View 32 v70,2013-06-17 17:30:00,
2013-06-17 10:35:00,68.8,51.4,29.99,NW,311,3.0,14.0,54,0.00,,,0.00,Weather View 32 v70,2013-06-17 17:35:00,
2013-06-17 10:40:00,69.1,50.7,29.99,NW,307,6.0,14.0,52,0.00,,,0.00,Weather View 32 v70,2013-06-17 17:40:00,
2013-06-17 10:50:00,69.6,51.7,29.99,WNW,294,4.0,14.0,53,0.00,,,0.00,Weather View 32 v70,2013-06-17 17:50:00,
2013-06-17 11:00:00,69.9,51.4,29.98,West,270,4.0,14.0,52,0.00,,,0.00,Weather View 32 v70,2013-06-17 18:00:00,
2013-06-17 11:05:00,70.4,50.8,29.98,NW,313,5.0,14.0,50,0.00,,,0.00,Weather View 32 v70,2013-06-17 18:05:00,
2013-06-17 11:10:00,70.8,48.9,29.98,West,277,3.0,14.0,46,0.00,,,0.00,Weather View 32 v70,2013-06-17 18:10:00,
2013-06-17 11:20:00,71.6,49.7,29.97,West,275,8.0,14.0,46,0.00,,,0.00,Weather View 32 v70,2013-06-17 18:20:00,
2013-06-17 11:26:00,72.1,49.5,29.97,West,277,2.0,14.0,45,0.00,,,0.00,Weather View 32 v70,2013-06-17 18:26:00,
2013-06-17 11:35:00,72.7,48.2,29.96,NW,312,5.0,14.0,42,0.00,,,0.00,Weather View 32 v70,2013-06-17 18:35:00,
2013-06-17 11:40:00,73.0,47.8,29.96,WNW,298,8.0,15.0,41,0.00,,,0.00,Weather View 32 v70,2013-06-17 18:40:00,
2013-06-17 11:50:00,73.3,48.1,29.96,NW,313,5.0,16.0,41,0.00,,,0.00,Weather View 32 v70,2013-06-17 18:50:00,
2013-06-17 12:00:00,74.2,48.9,29.96,WNW,299,5.0,16.0,41,0.00,,,0.00,Weather View 32 v70,2013-06-17 19:00:00,
2013-06-17 12:05:00,74.7,48.0,29.96,WSW,257,4.0,16.0,39,0.00,,,0.00,Weather View 32 v70,2013-06-17 19:05:00,
2013-06-17 12:10:00,75.1,47.7,29.96,WSW,242,12.0,16.0,38,0.00,,,0.00,Weather View 32 v70,2013-06-17 19:10:00,
2013-06-17 12:20:00,74.7,48.0,29.95,WNW,287,4.0,16.0,39,0.00,,,0.00,Weather View 32 v70,2013-06-17 19:20:00,
2013-06-17 12:25:00,75.4,49.3,29.95,West,266,10.0,16.0,40,0.00,,,0.00,Weather View 32 v70,2013-06-17 19:25:00,
2013-06-17 12:30:00,75.4,48.6,29.95,West,261,5.0,16.0,39,0.00,,,0.00,Weather View 32 v70,2013-06-17 19:30:00,
2013-06-17 12:35:00,75.4,48.6,29.95,West,267,8.0,16.0,39,0.00,,,0.00,Weather View 32 v70,2013-06-17 19:35:00,
2013-06-17 12:40:00,75.6,48.8,29.95,NW,306,16.0,17.0,39,0.00,,,0.00,Weather View 32 v70,2013-06-17 19:40:00,
2013-06-17 12:45:00,75.6,48.8,29.95,WNW,291,10.0,18.0,39,0.00,,,0.00,Weather View 32 v70,2013-06-17 19:45:00,
2013-06-17 12:50:00,74.7,48.0,29.95,West,265,7.0,18.0,39,0.00,,,0.00,Weather View 32 v70,2013-06-17 19:50:00,
2013-06-17 12:55:00,75.1,48.4,29.94,West,275,5.0,18.0,39,0.00,,,0.00,Weather View 32 v70,2013-06-17 19:55:00,
2013-06-17 13:05:00,75.8,49.0,29.94,West,275,7.0,18.0,39,0.00,,,0.00,Weather View 32 v70,2013-06-17 20:05:00,
2013-06-17 13:10:00,76.1,47.9,29.94,West,277,6.0,18.0,37,0.00,,,0.00,Weather View 32 v70,2013-06-17 20:10:00,
2013-06-17 13:20:00,76.7,48.4,29.93,NW,319,8.0,19.0,37,0.00,,,0.00,Weather View 32 v70,2013-06-17 20:20:00,
2013-06-17 13:25:00,76.5,48.2,29.93,West,276,2.0,19.0,37,0.00,,,0.00,Weather View 32 v70,2013-06-17 20:25:00,
2013-06-17 13:35:00,76.0,47.8,29.93,WNW,298,7.0,19.0,37,0.00,,,0.00,Weather View 32 v70,2013-06-17 20:35:00,
2013-06-17 13:40:00,76.7,48.4,29.93,WNW,298,6.0,19.0,37,0.00,,,0.00,Weather View 32 v70,2013-06-17 20:40:00,
2013-06-17 13:45:00,76.8,47.7,29.93,West,280,4.0,19.0,36,0.00,,,0.00,Weather View 32 v70,2013-06-17 20:45:00,
2013-06-17 13:50:00,77.4,48.3,29.92,West,272,5.0,19.0,36,0.00,,,0.00,Weather View 32 v70,2013-06-17 20:50:00,
2013-06-17 13:55:00,77.0,47.2,29.92,WSW,245,9.0,19.0,35,0.00,,,0.00,Weather View 32 v70,2013-06-17 20:55:00,
2013-06-17 13:59:00,76.7,47.7,29.92,WSW,256,9.0,19.0,36,0.00,,,0.00,Weather View 32 v70,2013-06-17 20:59:00,
2013-06-17 14:05:00,76.3,48.8,29.92,West,279,4.0,19.0,38,0.00,,,0.00,Weather View 32 v70,2013-06-17 21:05:00,
2013-06-17 14:09:00,76.3,47.3,29.92,West,277,2.0,19.0,36,0.00,,,0.00,Weather View 32 v70,2013-06-17 21:09:00,
2013-06-17 14:15:00,76.0,47.8,29.92,West,280,4.0,15.0,37,0.00,,,0.00,Weather View 32 v70,2013-06-17 21:15:00,
2013-06-17 14:20:00,76.5,49.6,29.92,NW,311,9.0,15.0,39,0.00,,,0.00,Weather View 32 v70,2013-06-17 21:20:00,
2013-06-17 14:25:00,76.8,48.5,29.92,NW,304,7.0,15.0,37,0.00,,,0.00,Weather View 32 v70,2013-06-17 21:25:00,
2013-06-17 14:30:00,77.4,48.3,29.91,WNW,290,6.0,15.0,36,0.00,,,0.00,Weather View 32 v70,2013-06-17 21:30:00,
2013-06-17 14:35:00,77.2,48.8,29.91,West,279,4.0,15.0,37,0.00,,,0.00,Weather View 32 v70,2013-06-17 21:35:00,
2013-06-17 14:40:00,77.0,47.9,29.91,WSW,250,5.0,16.0,36,0.00,,,0.00,Weather View 32 v70,2013-06-17 21:40:00,
2013-06-17 14:45:00,77.0,47.2,29.91,SW,221,8.0,16.0,35,0.00,,,0.00,Weather View 32 v70,2013-06-17 21:45:00,
2013-06-17 14:50:00,77.2,48.8,29.91,WNW,296,10.0,16.0,37,0.00,,,0.00,Weather View 32 v70,2013-06-17 21:50:00,
2013-06-17 14:55:00,77.9,48.0,29.91,West,264,12.0,16.0,35,0.00,,,0.00,Weather View 32 v70,2013-06-17 21:55:00,
2013-06-17 15:04:00,78.8,47.2,29.90,WNW,303,7.0,16.0,33,0.00,,,0.00,Weather View 32 v70,2013-06-17 22:04:00,
2013-06-17 15:10:00,78.6,47.0,29.90,WNW,302,10.0,16.0,33,0.00,,,0.00,Weather View 32 v70,2013-06-17 22:10:00,
2013-06-17 15:20:00,78.5,46.9,29.90,NW,315,5.0,19.0,33,0.00,,,0.00,Weather View 32 v70,2013-06-17 22:20:00,
2013-06-17 15:25:00,77.9,46.4,29.89,NW,325,6.0,19.0,33,0.00,,,0.00,Weather View 32 v70,2013-06-17 22:25:00,
2013-06-17 15:30:00,78.3,45.9,29.89,WNW,293,11.0,19.0,32,0.00,,,0.00,Weather View 32 v70,2013-06-17 22:30:00,
2013-06-17 15:35:00,78.5,46.9,29.89,West,277,5.0,19.0,33,0.00,,,0.00,Weather View 32 v70,2013-06-17 22:35:00,
2013-06-17 15:40:00,78.1,46.6,29.89,West,261,3.0,19.0,33,0.00,,,0.00,Weather View 32 v70,2013-06-17 22:40:00,
2013-06-17 15:49:00,78.5,46.1,29.89,West,272,8.0,19.0,32,0.00,,,0.00,Weather View 32 v70,2013-06-17 22:49:00,
2013-06-17 15:55:00,78.6,46.2,29.89,NW,321,10.0,19.0,32,0.00,,,0.00,Weather View 32 v70,2013-06-17 22:55:00,
2013-06-17 16:00:00,78.1,46.6,29.88,West,281,5.0,19.0,33,0.00,,,0.00,Weather View 32 v70,2013-06-17 23:00:00,
2013-06-17 16:05:00,77.9,47.2,29.88,WNW,288,10.0,19.0,34,0.00,,,0.00,Weather View 32 v70,2013-06-17 23:05:00,
2013-06-17 16:10:00,77.9,45.6,29.88,WNW,300,9.0,19.0,32,0.00,,,0.00,Weather View 32 v70,2013-06-17 23:10:00,
2013-06-17 16:20:00,77.4,46.0,29.88,NW,316,10.0,19.0,33,0.00,,,0.00,Weather View 32 v70,2013-06-17 23:20:00,
2013-06-17 16:25:00,77.4,46.7,29.88,West,279,6.0,19.0,34,0.00,,,0.00,Weather View 32 v70,2013-06-17 23:25:00,
2013-06-17 16:30:00,77.4,46.7,29.88,West,269,6.0,19.0,34,0.00,,,0.00,Weather View 32 v70,2013-06-17 23:30:00,
2013-06-17 16:40:00,76.8,47.0,29.88,NW,310,9.0,19.0,35,0.00,,,0.00,Weather View 32 v70,2013-06-17 23:40:00,
2013-06-17 16:45:00,77.2,47.3,29.88,WNW,288,6.0,19.0,35,0.00,,,0.00,Weather View 32 v70,2013-06-17 23:45:00,
2013-06-17 16:50:00,77.4,46.7,29.88,WNW,292,5.0,19.0,34,0.00,,,0.00,Weather View 32 v70,2013-06-17 23:50:00,
2013-06-17 17:00:00,77.4,47.5,29.88,WNW,300,5.0,19.0,35,0.00,,,0.00,Weather View 32 v70,2013-06-18 00:00:00,
2013-06-17 17:05:00,76.8,47.0,29.88,West,265,16.0,19.0,35,0.00,,,0.00,Weather View 32 v70,2013-06-18 00:05:00,
2013-06-17 17:10:00,76.1,47.1,29.88,SW,226,9.0,18.0,36,0.00,,,0.00,Weather View 32 v70,2013-06-18 00:10:00,
2013-06-17 17:15:00,76.0,47.8,29.87,West,279,6.0,18.0,37,0.00,,,0.00,Weather View 32 v70,2013-06-18 00:15:00,
2013-06-17 17:25:00,76.0,46.3,29.87,WNW,301,12.0,19.0,35,0.00,,,0.00,Weather View 32 v70,2013-06-18 00:25:00,
2013-06-17 17:30:00,76.1,47.9,29.87,WSW,244,4.0,19.0,37,0.00,,,0.00,Weather View 32 v70,2013-06-18 00:30:00,
2013-06-17 17:40:00,76.3,47.3,29.87,WSW,248,9.0,19.0,36,0.00,,,0.00,Weather View 32 v70,2013-06-18 00:40:00,
2013-06-17 17:45:00,76.1,47.1,29.87,NW,307,3.0,19.0,36,0.00,,,0.00,Weather View 32 v70,2013-06-18 00:45:00,
2013-06-17 17:55:00,76.3,47.3,29.87,WNW,291,7.0,19.0,36,0.00,,,0.00,Weather View 32 v70,2013-06-18 00:55:00,
2013-06-17 18:00:00,76.5,47.5,29.87,NW,313,13.0,19.0,36,0.00,,,0.00,Weather View 32 v70,2013-06-18 01:00:00,
2013-06-17 18:10:00,76.3,47.3,29.87,West,276,8.0,19.0,36,0.00,,,0.00,Weather View 32 v70,2013-06-18 01:10:00,
2013-06-17 18:15:00,76.0,46.3,29.87,SW,234,7.0,19.0,35,0.00,,,0.00,Weather View 32 v70,2013-06-18 01:15:00,
2013-06-17 18:25:00,74.7,46.6,29.87,NW,311,14.0,19.0,37,0.00,,,0.00,Weather View 32 v70,2013-06-18 01:25:00,
2013-06-17 18:30:00,74.6,47.2,29.87,WNW,300,9.0,19.0,38,0.00,,,0.00,Weather View 32 v70,2013-06-18 01:30:00,
2013-06-17 18:40:00,73.5,47.6,29.87,WNW,288,9.0,20.0,40,0.00,,,0.00,Weather View 32 v70,2013-06-18 01:40:00,
2013-06-17 18:45:00,73.9,47.3,29.88,WNW,298,9.0,20.0,39,0.00,,,0.00,Weather View 32 v70,2013-06-18 01:45:00,
2013-06-17 18:55:00,74.2,47.6,29.88,WNW,292,2.0,20.0,39,0.00,,,0.00,Weather View 32 v70,2013-06-18 01:55:00,
2013-06-17 19:00:00,74.4,47.8,29.88,WNW,286,4.0,20.0,39,0.00,,,0.00,Weather View 32 v70,2013-06-18 02:00:00,
2013-06-17 19:10:00,74.2,46.9,29.88,West,276,7.0,20.0,38,0.00,,,0.00,Weather View 32 v70,2013-06-18 02:10:00,
2013-06-17 19:15:00,74.2,46.9,29.88,West,267,8.0,20.0,38,0.00,,,0.00,Weather View 32 v70,2013-06-18 02:15:00,
2013-06-17 19:25:00,74.0,46.7,29.88,WSW,252,9.0,20.0,38,0.00,,,0.00,Weather View 32 v70,2013-06-18 02:25:00,
2013-06-17 19:30:00,73.9,45.9,29.88,West,279,4.0,20.0,37,0.00,,,0.00,Weather View 32 v70,2013-06-18 02:30:00,
2013-06-17 19:35:00,73.9,46.6,29.88,WNW,298,3.0,19.0,38,0.00,,,0.00,Weather View 32 v70,2013-06-18 02:35:00,
2013-06-17 19:45:00,73.5,46.3,29.88,WNW,296,3.0,19.0,38,0.00,,,0.00,Weather View 32 v70,2013-06-18 02:45:00,
2013-06-17 19:50:00,73.2,45.3,29.88,NW,309,6.0,19.0,37,0.00,,,0.00,Weather View 32 v70,2013-06-18 02:50:00,
2013-06-17 20:00:00,72.7,45.6,29.88,NW,326,7.0,19.0,38,0.00,,,0.00,Weather View 32 v70,2013-06-18 03:00:00,
2013-06-17 20:05:00,72.3,45.9,29.88,WNW,286,3.0,19.0,39,0.00,,,0.00,Weather View 32 v70,2013-06-18 03:05:00,
2013-06-17 20:10:00,72.1,45.7,29.88,West,279,6.0,15.0,39,0.00,,,0.00,Weather View 32 v70,2013-06-18 03:10:00,
2013-06-17 20:15:00,72.1,46.4,29.89,WNW,298,4.0,13.0,40,0.00,,,0.00,Weather View 32 v70,2013-06-18 03:15:00,
2013-06-17 20:20:00,72.0,46.9,29.89,West,281,7.0,13.0,41,0.00,,,0.00,Weather View 32 v70,2013-06-18 03:20:00,
2013-06-17 20:25:00,71.6,46.6,29.89,WNW,288,7.0,13.0,41,0.00,,,0.00,Weather View 32 v70,2013-06-18 03:25:00,
2013-06-17 20:30:00,71.3,47.6,29.89,WSW,251,3.0,13.0,43,0.00,,,0.00,Weather View 32 v70,2013-06-18 03:30:00,
2013-06-17 20:35:00,71.3,47.0,29.89,WNW,284,9.0,15.0,42,0.00,,,0.00,Weather View 32 v70,2013-06-18 03:35:00,
2013-06-17 20:45:00,71.1,47.4,29.89,WNW,288,5.0,15.0,43,0.00,,,0.00,Weather View 32 v70,2013-06-18 03:45:00,
2013-06-17 20:50:00,70.8,47.7,29.90,WSW,252,11.0,15.0,44,0.00,,,0.00,Weather View 32 v70,2013-06-18 03:50:00,
2013-06-17 21:00:00,70.6,48.2,29.90,West,281,7.0,15.0,45,0.00,,,0.00,Weather View 32 v70,2013-06-18 04:00:00,
2013-06-17 21:05:00,70.4,48.6,29.89,WSW,252,3.0,15.0,46,0.00,,,0.00,Weather View 32 v70,2013-06-18 04:05:00,
2013-06-17 21:10:00,70.3,48.5,29.90,WSW,252,3.0,15.0,46,0.00,,,0.00,Weather View 32 v70,2013-06-18 04:10:00,
2013-06-17 21:15:00,70.1,48.9,29.90,WNW,292,10.0,17.0,47,0.00,,,0.00,Weather View 32 v70,2013-06-18 04:15:00,
2013-06-17 21:25:00,69.6,50.1,29.90,NW,304,5.0,17.0,50,0.00,,,0.00,Weather View 32 v70,2013-06-18 04:25:00,
2013-06-17 21:32:00,69.3,49.8,29.91,West,260,6.0,18.0,50,0.00,,,0.00,Weather View 32 v70,2013-06-18 04:32:00,
2013-06-17 21:35:00,69.1,49.6,29.91,WNW,300,5.0,18.0,50,0.00,,,0.00,Weather View 32 v70,2013-06-18 04:35:00,
2013-06-17 21:45:00,68.4,49.0,29.92,West,273,12.0,18.0,50,0.00,,,0.00,Weather View 32 v70,2013-06-18 04:45:00,
2013-06-17 21:55:00,68.3,48.9,29.92,NW,308,4.0,18.0,50,0.00,,,0.00,Weather View 32 v70,2013-06-18 04:55:00,
2013-06-17 22:00:00,67.9,48.5,29.92,West,279,9.0,18.0,50,0.00,,,0.00,Weather View 32 v70,2013-06-18 05:00:00,
2013-06-17 22:10:00,67.6,49.8,29.93,WNW,298,8.0,18.0,53,0.00,,,0.00,Weather View 32 v70,2013-06-18 05:10:00,
2013-06-17 22:15:00,67.3,50.0,29.93,West,275,12.0,18.0,54,0.00,,,0.00,Weather View 32 v70,2013-06-18 05:15:00,
2013-06-17 22:25:00,66.8,50.1,29.93,NW,304,8.0,18.0,55,0.00,,,0.00,Weather View 32 v70,2013-06-18 05:25:00,
2013-06-17 22:30:00,66.8,50.1,29.93,West,267,2.0,18.0,55,0.00,,,0.00,Weather View 32 v70,2013-06-18 05:30:00,
2013-06-17 22:40:00,66.3,50.6,29.93,West,276,7.0,22.0,57,0.00,,,0.00,Weather View 32 v70,2013-06-18 05:40:00,
2013-06-17 22:45:00,66.0,50.3,29.94,WNW,285,4.0,22.0,57,0.00,,,0.00,Weather View 32 v70,2013-06-18 05:45:00,
2013-06-17 22:50:00,65.8,50.1,29.93,North,355,3.0,22.0,57,0.00,,,0.00,Weather View 32 v70,2013-06-18 05:50:00,
2013-06-17 22:55:00,65.5,50.3,29.94,WNW,303,10.0,22.0,58,0.00,,,0.00,Weather View 32 v70,2013-06-18 05:55:00,
2013-06-17 23:00:00,65.2,50.5,29.94,NW,309,8.0,22.0,59,0.00,,,0.00,Weather View 32 v70,2013-06-18 06:00:00,
2013-06-17 23:10:00,64.8,50.6,29.94,WSW,244,4.0,22.0,60,0.00,,,0.00,Weather View 32 v70,2013-06-18 06:10:00,
2013-06-17 23:15:00,64.7,50.5,29.94,West,265,2.0,22.0,60,0.00,,,0.00,Weather View 32 v70,2013-06-18 06:15:00,
2013-06-17 23:25:00,64.3,50.5,29.94,WNW,296,4.0,22.0,61,0.00,,,0.00,Weather View 32 v70,2013-06-18 06:25:00,
2013-06-17 23:30:00,64.3,50.5,29.94,West,279,3.0,22.0,61,0.00,,,0.00,Weather View 32 v70,2013-06-18 06:30:00,
2013-06-17 23:40:00,64.0,50.2,29.95,WNW,286,2.0,17.0,61,0.00,,,0.00,Weather View 32 v70,2013-06-18 06:40:00,
2013-06-17 23:45:00,63.9,50.2,29.95,West,270,7.0,17.0,61,0.00,,,0.00,Weather View 32 v70,2013-06-18 06:45:00,
2013-06-17 23:55:00,63.5,49.8,29.95,West,273,4.0,17.0,61,0.00,,,0.00,Weather View 32 v70,2013-06-18 06:55:00,